www.pogodaiklimat.ru

Погода и климат >> Архив погоды >> Россия >> Чувашия >> Чебоксары


АРХИВ ПОГОДЫ в Чебоксарах

Время (UTC), дата Ветер
(напр.,м/с)
 
Видим.   Явления Облачность Т
(С)
Тd
(С)
f
(%)
Тe
(С)
Тes
(С)
Комфортность P
(гПа)
Po
(гПа)
Тmin
(С)
Tmax
(С)
R
(мм)
R24
(мм)
S
(см)
00 15.08 С 1-2
{2}
10 км 3/3 1000 м
[Sc]
+14.1 +10.5 79 +14 +14 по сезону 1014.5 995.2
03 15.08 Ю 2-2
{3}
10 км 6/6 1000 м
[Sc]
+15.4 +12.3 82 +15 +16 по сезону 1015.1 995.9 +12.7
06 15.08 Ю 3-5
{5}
10 км 4/3 1000 м
[Sc Ac trans Cc]
+20.6 +13.3 63 +23 +28 комфорт 1014.5 995.5
09 15.08 Ю 4-6
{6}
10 км 3/3 600 м
[Cu hum]
+24.9 +14.7 53 +28 +33 жарко 1013.7 995.0
12 15.08 Ю 4-7
{8}
10 км 3/0
[Ci sp]
+27.4 +14.7 46 +30 +34 жарко 1012.9 994.4
15 15.08 Ю 4-5
{8}
10 км 3/3 1000 м
[Cb calv Ci fib]
+26.4 +14.8 49 +29 +29 жарко 1011.8 993.2 +27.5
18 15.08 Ю 3-5
{6}
10 км зарница 6/5 1000 м
[Cb calv Ci sp]
+21.4 +15.2 68 +25 +25 комфорт 1012.0 993.1
21 15.08 З 1-2
{8}
10 км зарница 8/5 1000 м
[Cb calv Ci sp]
+20.6 +15.4 72 +25 +25 комфорт 1012.5 993.5
00 16.08 Ю 3-3
{4}
10 км 4/3 1000 м
[Cb calv Ci sp]
+18.1 +14.5 79 +18 +18 тепло 1012.5 993.4
03 16.08 В 1-1
{4}
10 км 8/3 300 м
[St Ac trans Cc]
+18.6 +15.4 82 +21 +21 комфорт 1012.8 993.7 +16.8
06 16.08 СЗ 3-7
{7}
10 км 9/4 1000 м
[Cb calv Ac trans Cc]
+22.6 +16.6 69 +27 +29 душно 1012.8 994.0
09 16.08 С 8-11
{15}
10 км гроза, ливневой дождь 10/10 200 м
[Cb cap]
+16.3 +14.6 90 +15 +15 холодно 1016.2 997.0
12 16.08 штиль 0-8
{11}
10 км {гроза, ливн. осадки} 10/8 600 м
[Cb calv As trans]
+18.5 +15.5 83 +19 +20 прохладно 1015.2 996.1
15 16.08 СВ 2-3
{8}
10 км 10/6 600 м
[Cb calv Ac trans Cs]
+18.8 +15.4 81 +20 +21 тепло 1014.4 995.4 +23.1 14
18 16.08 С 2-2
{3}
10 км 10/6 600 м
[Cb calv Ac trans Cs]
+17.1 +15.0 87 +17 +17 по сезону 1015.3 996.1
21 16.08 С 2-3
{6}
10 км слаб. ливневой дождь 10/10 600 м
[Cb cap]
+17.0 +14.9 87 +17 +17 тепло 1015.4 996.2
00 17.08 СВ 3-5
{5}
10 км в посл. час ливневой дождь 10/10 600 м
[Cb calv]
+16.7 +14.6 87 +16 +16 тепло 1014.3 995.1
03 17.08 СВ 3-4
{6}
10 км {ливн. осадки} 10/6 200 м
[Cb calv As op]
+16.6 +14.9 90 +16 +16 по сезону 1014.5 995.3 +16.5 8
06 17.08 СВ 2-3
{5}
10 км {ливн. осадки} 10/8 300 м
[Cb calv As op]
+17.6 +15.7 89 +18 +18 по сезону 1015.0 995.9
09 17.08 СВ 3-5
{6}
10 км 10/8 300 м
[Cb calv As op]
+19.5 +16.5 83 +22 +22 комфорт 1015.0 996.0
12 17.08 СВ 3-4
{5}
10 км слаб. ливневой дождь 10/10 300 м
[Cb cap]
+20.4 +17.1 81 +24 +24 комфорт 1014.9 995.9
15 17.08 штиль 0
{4}
10 км {ливн. осадки} 9/8 300 м
[Cb calv Ac trans]
+19.5 +16.9 85 +21 +22 комфорт 1015.5 996.5 +20.6 0.0
18 17.08 СВ 1-1
{2}
10 км слаб. ливневой дождь 9/8 300 м
[Cb cap Ac trans]
+18.5 +16.7 89 +20 +20 тепло 1015.6 996.5
21 17.08 СВ 2-4
{4}
1000 м дымка {ливн. осадки} 10/10 100 м
[St]
+18.6 +17.3 92 +20 +20 тепло 1015.4 996.3
00 18.08 СВ 2-5
{5}
1000 м слаб. морось 10/10 100 м
[St]
+18.0 +16.7 92 +19 +19 тепло 1015.4 996.3
03 18.08 СВ 4-6
{6}
4000 м дымка 10/8 100 м
[Sc As trans]
+18.0 +16.7 92 +18 +18 тепло 1014.6 995.5 +17.9 0.3
06 18.08 СВ 2 10 км {морось} 9/5 200 м
[Sc Ac trans]
+19.5 +17.5 88 +22 +24 комфорт 1014.0 995.0
09 18.08 СВ 1-3
{5}
10 км {ливн. осадки} 6/3 1000 м
[Cb calv Ac trans]
+24.5 +17.8 66 +29 +36 душно 1013.3 994.7
12 18.08 СВ 2-3
{6}
10 км {ливн. осадки} 6/3 1000 м
[Sc Ac trans]
+25.9 +12.9 45 +28 +31 жарко 1013.4 994.8
15 18.08 ЮВ 3-3
{4}
10 км 4/3 1000 м
[Cb calv Ac trans]
+23.9 +15.5 59 +27 +27 жарко 1014.2 995.5 +27.9 0.0
18 18.08 ЮВ 3-3
{4}
10 км 4/0
[Ac trans]
+20.9 +15.4 71 +25 +25 комфорт 1015.1 996.2
21 18.08 Ю 3-4
{5}
10 км 4/0
[Ac trans]
+19.0 +14.2 74 +20 +20 тепло 1016.0 996.9
00 19.08 З 3-5
{9}
10 км гроза, ливневой дождь 6/6 1000 м
[Cb cap]
+18.5 +15.8 84 +19 +19 тепло 1016.6 997.5
03 19.08 Ю 1-2
{6}
10 км слаб. ливневой дождь {гроза} 6/6 600 м
[Cb cap]
+17.7 +15.7 88 +19 +19 тепло 1017.4 998.2 +17.2 2
06 19.08 ЮВ 2-3
{4}
10 км {гроза, ливн. осадки} 8/5 1000 м
[Cb calv Ac trans Cc]
+20.9 +16.3 75 +25 +28 комфорт 1017.0 998.1
09 19.08 ЮВ 4-5
{5}
10 км 9/8 1000 м
[Cb calv Ac trans]
+24.1 +17.0 65 +28 +29 душно 1016.6 997.9
12 19.08 Ю 3-4
{7}
10 км {ливн. осадки} 9/8 600 м
[Cb calv Ac trans]
+23.1 +16.6 67 +28 +29 душно 1016.7 997.9
15 19.08 ЮЗ 2-3
{5}
10 км 8/6 1000 м
[Cb calv Ac trans]
+22.4 +17.2 72 +27 +27 душно 1016.9 998.1 +24.3 0.0
18 19.08 ЮЗ 3-3
{5}
10 км 9/6 1000 м
[Sc Ac trans]
+20.1 +16.7 81 +23 +23 комфорт 1017.7 998.7
21 19.08 СЗ 2-5
{6}
10 км 3/0
[Ac trans]
+19.2 +14.2 73 +21 +21 комфорт 1018.2 999.1
00 20.08 СЗ 3-4
{5}
10 км 3/0
[Ac trans]
+17.1 +13.6 80 +17 +17 тепло 1019.1 999.8
03 20.08 З 3-3
{4}
10 км ясно +16.2 +13.4 83 +16 +16 по сезону 1019.7 1000.4 +15.2
06 20.08 СЗ 4-6
{6}
10 км 6/3 1000 м
[Sc Ac trans]
+19.2 +15.3 78 +21 +23 комфорт 1019.9 1000.8
09 20.08 СЗ 4-6
{6}
10 км 6/4 600 м
[Cb calv Ac trans]
+23.1 +15.5 62 +27 +31 душно 1019.7 1000.9
12 20.08 З 3-5
{7}
10 км 5/3 1000 м
[Cb calv Ac trans]
+24.5 +15.0 55 +27 +30 жарко 1019.9 1001.1
15 20.08 СЗ 3-5
{7}
10 км 8/5 1000 м
[Cb calv Ac trans Ci sp]
+23.1 +14.9 60 +27 +27 душно 1019.8 1001.0 +25.0
18 20.08 С 2-2
{5}
10 км 3/0
[Ac trans]
+19.3 +15.1 77 +21 +21 комфорт 1020.8 1001.7
21 20.08 штиль 0
{2}
10 км 3/0
[Ac trans Ci sp]
+17.3 +15.1 87 +17 +17 тепло 1021.6 1002.4
00 21.08 З 2-3
{3}
10 км 3/0
[Ci sp]
+15.9 +13.4 85 +16 +16 тепло 1021.9 1002.5
03 21.08 З 2-2
{3}
10 км 3/0
[Ci sp]
+17.9 +15.5 86 +18 +19 тепло 1022.4 1003.1 +15.6
06 21.08 С 1-2
{3}
10 км ясно +22.8 +15.5 63 +27 +35 душно 1022.9 1004.0
09 21.08 СЗ 2-4
{5}
10 км 3/3 1000 м
[Cu hum Ac trans]
+24.8 +14.8 54 +28 +35 жарко 1022.4 1003.6
12 21.08 СЗ 3-5
{6}
10 км 3/3 1000 м
[Sc Ac trans]
+25.9 +14.0 48 +28 +32 жарко 1022.1 1003.4
15 21.08 СЗ 1-1
{6}
10 км 3/0
[Ac trans]
+25.5 +14.7 51 +28 +28 жарко 1021.7 1003.0 +26.1
18 21.08 ЮЗ 2-2
{3}
10 км 3/3 1000 м
[Sc]
+21.1 +15.2 69 +24 +24 комфорт 1022.1 1003.1
21 21.08 З 1-2
{3}
10 км ясно +18.7 +14.8 78 +21 +21 комфорт 1022.2 1003.0

 

Местоположение метеостанции Чебоксары (Чувашия, Россия): широта 56.08 долгота 47.33 высота над уровнем моря 163 м.

В архиве по умолчанию представлена погода в Чебоксарах за последнюю неделю. Архивные данные за месяц целиком и за предыдущие месяцы, начиная с января 2011 года, Вы можете получить, выбрав интересующий диапазон дат из раскрывающегося списка и нажав кнопку "Ввод!".


*Определитесь, кто Вы:
робот инопланетянин человек

Внимание! Время в таблицах - всемирное. Для получения местного времени необходимо прибавить поправку, которая равна 3 ч.

Смотрите также архив погоды в соседних городах и на ближайших метеорологических станциях:

Погода в Козьмодемьянске (Марий-Эл, Россия) (54 км)
Погода в Канаше (Чувашия, Россия) (63 км)
Погода в Йошкар-Оле (Марий-Эл, Россия) (67 км)
Погода в Вязовых (Татарстан, Россия) (80 км)
Погода в Больших Кайбицах (Татарстан, Россия) (92 км)
Погода в Санчурске (Кировская область, Россия) (100 км)
Погода в Морках (Марий-Эл, Россия) (111 км)
Погода в Батырево (Чувашия, Россия) (114 км)
Погода в Порецком (Чувашия, Россия) (118 км)
Погода в Казани (Татарстан, Россия) (123 км)

Пояснения к столбцам:

Ветер - указаны скорость ветра в м/с - средняя за 10 мин, порывы в срок и между сроками (в фигурных скобках) и направление, откуда дует ветер: С - северный, СВ - северо-восточный, В - восточный, ЮВ - юго-восточный, Ю - южный, ЮЗ - юго-западный, З - западный, СЗ - северо-западный.
Видимость - горизонтальная дальность видимости в метрах или километрах. При видимости от 1 до 10 км при отсутствии осадков обычно наблюдается дымка, при ухудшении видимости до 1 км и менее - туман. В сухую погоду видимость может ухудшаться дымом, пылью или мглою.
Явления - указаны атмосферные явления, наблюдавшиеся в срок или в последний час перед сроком; фигурными скобками обозначены явления, наблюдавшиеся между сроками (за 1-3 часа до срока); квадратными скобками обозначены град или гололедные отложения с указанием их диаметра в мм.
Облачность - указаны через наклонную черту общая и нижняя облачность в баллах и высота нижней границы облаков в метрах; квадратными скобками обозначены формы облаков: Ci - перистые, Cs - перисто-слоистые, Cc - перисто-кучевые, Ac - высококучевые, As - высокослоистые, Sc - слоисто-кучевые, Ns - слоисто-дождевые, Cu - кучевые, Cb - кучево-дождевые. Подробнее классификацию облаков см. в Атласе облаков (PDF).
T - Температура воздуха - температура, измеренная на высоте 2 м над землей.
Td - Температура точки росы - температура, при понижении до которой содержащийся в воздухе водяной пар достигнет насыщения.
f - Относительная влажность воздуха - влажноcть воздуха, измеренная на высоте 2 м над землей.
Te - Эффективная температура - температура, которую ощущает одетый по сезону человек в тени. Характеристика душности погоды. При расчете учитывается влияние влажности воздуха и скорости ветра на теплоощущения человека.
Tes - Эффективная температура на солнце - температура, которую ощущает человек, с поправкой на солнечный нагрев. Характеристика знойности погоды. Зависит от высоты солнца над горизонтом, облачности и скорости ветра. Ночью, в пасмурную погоду, а также при ветре 12 м/с и более поправка равна нулю.
P - Атмосферное давление - приведенное к уровню моря атмосферное давление.
Po - Атмосферное давление - измеренное на уровне метеостанции атмосферное давление.
Tmin - Минимальная температура - минимум температуры воздуха на высоте 2 м над землей.
Tmax - Максимальная температура - максимум температуры воздуха на высоте 2 м над землей.
R - Количество осадков - Количество выпавших осадков за период времени, мм. При наведении курсора мыши на число - период времени, за который выпало указанное количество осадков.
R24 - Количество осадков - Количество выпавших осадков за 24 часа, мм.
S - Снежный покров - Высота снежного покрова, см. При наведении курсора мыши на число - состояние снежного покрова и степень покрытия местности в баллах.